Aviation Digital Data Service (ADDS)

Output produced by METARs form (0637 UTC 27 March 2017)
found at http://www.aviationweather.gov/adds/metars/
 
OPLA 270555Z 31004KT 4000 HZ NSC 32/12 Q1013 A29.90 NOSIG
TAF OPLA 270345Z 2706/2812 31008KT 5000 HZ NSC TX35/2710Z TN19/2801Z FM 27,1500 31003KT 4000 FU NSC 
     BECMG 2801/2804 2500 FU FM 28,0400 33006KT 5000 HZ NSC
       
TAF OPGD 270400Z 2706/2806 26010G20KT 5000 HZ SCT020 SCT100 
     TEMPO 2801/2805 22005KT 4000 SCT020 SCT100
       
OPKC 270555Z 28006KT 4000 HZ NSC 33/16 Q1014 NOSIG
TAF OPKC 270400Z 2706/2812 27010G20KT 7000 NSC FM 271800Z 27005G15KT 6000 NSC 
     TEMPO 2801/2805 27010KT 5000 HZ FEW020 FEW100 FM 280700Z 27010G20KT 7000 NSC
       
OPLA 270555Z 31004KT 4000 HZ NSC 32/12 Q1013 A29.90 NOSIG
TAF OPLA 270345Z 2706/2812 31008KT 5000 HZ NSC TX35/2710Z TN19/2801Z FM 27,1500 31003KT 4000 FU NSC 
     BECMG 2801/2804 2500 FU FM 28,0400 33006KT 5000 HZ NSC
       
OPMT 270055Z 00000KT 4000 FU NSC 23/16 Q1010 NOSIG
OPNH 270600Z 31503KT 7000M NSC 37/15 Q.1012 NOSIG
TAF OPNH 270400Z 2706/2812 24010KT 6000 NSC FM 272100Z 22006KT 5000 HZ SCT020 SCT100 
     TEMPO 2801/2805 22005KT 4000 HZ SCT020 SCT100 FM 280600Z 24008KT 6000 SCT020 SCT100
       
OPPS 270600Z 05006KT 8000 HZ FEW200 30/16 Q1015
TAF OPPS 270312Z 2706/2812 22010KT 4000 HZ FEW040 SCT100 
     TEMPO 2710/2712 FEW030TCU SCT040 BKN100 
     TEMPO 2715/2720 VCTS FEW030TCU SCT040 BKN100
       
OPRN 270600Z 27006KT 6000 FEW200 30/11 Q1015.5/29.99
TAF OPRN 270330Z 2706/2812 32010G20KT 6000 FEW040 SCT100 SCT200 
     BECMG 2715/2717 23010KT 4000 HZ SCT100 SCT200 
     BECMG 2800/2802 32010G20KT TSRA FEW030TCU/CB SCT040 BKN100
       
OPSK 270500Z 00000KT 3000 HZ NSC 34/16 Q1011 NOSIG
TAF OPSK 270400Z 2706/2806 23006KT 5000 HZ FEW020 
     TEMPO 2801/2805 22005KT 2000 FU SCT020 SCT100
       
OPST 270600Z 31004KT 4000 HZ FEW100 30/10 Q1014 NOSIG RH30
TAF OPGD 270400Z 2706/2806 26010G20KT 5000 HZ SCT020 SCT100 
     TEMPO 2801/2805 22005KT 4000 SCT020 SCT100
       
OPKC 270555Z 28006KT 4000 HZ NSC 33/16 Q1014 NOSIG
TAF OPKC 270400Z 2706/2812 27010G20KT 7000 NSC FM 271800Z 27005G15KT 6000 NSC 
     TEMPO 2801/2805 27010KT 5000 HZ FEW020 FEW100 FM 280700Z 27010G20KT 7000 NSC
       
OPLA 270555Z 31004KT 4000 HZ NSC 32/12 Q1013 A29.90 NOSIG
TAF OPLA 270345Z 2706/2812 31008KT 5000 HZ NSC TX35/2710Z TN19/2801Z FM 27,1500 31003KT 4000 FU NSC 
     BECMG 2801/2804 2500 FU FM 28,0400 33006KT 5000 HZ NSC
       
OPMT 270055Z 00000KT 4000 FU NSC 23/16 Q1010 NOSIG
OPNH 270600Z 31503KT 7000M NSC 37/15 Q.1012 NOSIG
TAF OPNH 270400Z 2706/2812 24010KT 6000 NSC FM 272100Z 22006KT 5000 HZ SCT020 SCT100 
     TEMPO 2801/2805 22005KT 4000 HZ SCT020 SCT100 FM 280600Z 24008KT 6000 SCT020 SCT100
       
OPPS 270600Z 05006KT 8000 HZ FEW200 30/16 Q1015
TAF OPPS 270312Z 2706/2812 22010KT 4000 HZ FEW040 SCT100 
     TEMPO 2710/2712 FEW030TCU SCT040 BKN100 
     TEMPO 2715/2720 VCTS FEW030TCU SCT040 BKN100
       
OPRN 270600Z 27006KT 6000 FEW200 30/11 Q1015.5/29.99
TAF OPRN 270330Z 2706/2812 32010G20KT 6000 FEW040 SCT100 SCT200 
     BECMG 2715/2717 23010KT 4000 HZ SCT100 SCT200 
     BECMG 2800/2802 32010G20KT TSRA FEW030TCU/CB SCT040 BKN100
       
OPSK 270500Z 00000KT 3000 HZ NSC 34/16 Q1011 NOSIG
TAF OPSK 270400Z 2706/2806 23006KT 5000 HZ FEW020 
     TEMPO 2801/2805 22005KT 2000 FU SCT020 SCT100
       
OPST 270600Z 31004KT 4000 HZ FEW100 30/10 Q1014 NOSIG RH30
OPRN 270600Z 27006KT 6000 FEW200 30/11 Q1015.5/29.99
TAF OPRN 270330Z 2706/2812 32010G20KT 6000 FEW040 SCT100 SCT200 
     BECMG 2715/2717 23010KT 4000 HZ SCT100 SCT200 
     BECMG 2800/2802 32010G20KT TSRA FEW030TCU/CB SCT040 BKN100
       
TAF OPGD 270400Z 2706/2806 26010G20KT 5000 HZ SCT020 SCT100 
     TEMPO 2801/2805 22005KT 4000 SCT020 SCT100
       
OPKC 270555Z 28006KT 4000 HZ NSC 33/16 Q1014 NOSIG
TAF OPKC 270400Z 2706/2812 27010G20KT 7000 NSC FM 271800Z 27005G15KT 6000 NSC 
     TEMPO 2801/2805 27010KT 5000 HZ FEW020 FEW100 FM 280700Z 27010G20KT 7000 NSC
       
OPLA 270555Z 31004KT 4000 HZ NSC 32/12 Q1013 A29.90 NOSIG
TAF OPLA 270345Z 2706/2812 31008KT 5000 HZ NSC TX35/2710Z TN19/2801Z FM 27,1500 31003KT 4000 FU NSC 
     BECMG 2801/2804 2500 FU FM 28,0400 33006KT 5000 HZ NSC
       
OPMT 270055Z 00000KT 4000 FU NSC 23/16 Q1010 NOSIG
OPNH 270600Z 31503KT 7000M NSC 37/15 Q.1012 NOSIG
TAF OPNH 270400Z 2706/2812 24010KT 6000 NSC FM 272100Z 22006KT 5000 HZ SCT020 SCT100 
     TEMPO 2801/2805 22005KT 4000 HZ SCT020 SCT100 FM 280600Z 24008KT 6000 SCT020 SCT100
       
OPPS 270600Z 05006KT 8000 HZ FEW200 30/16 Q1015
TAF OPPS 270312Z 2706/2812 22010KT 4000 HZ FEW040 SCT100 
     TEMPO 2710/2712 FEW030TCU SCT040 BKN100 
     TEMPO 2715/2720 VCTS FEW030TCU SCT040 BKN100
       
OPRN 270600Z 27006KT 6000 FEW200 30/11 Q1015.5/29.99
TAF OPRN 270330Z 2706/2812 32010G20KT 6000 FEW040 SCT100 SCT200 
     BECMG 2715/2717 23010KT 4000 HZ SCT100 SCT200 
     BECMG 2800/2802 32010G20KT TSRA FEW030TCU/CB SCT040 BKN100
       
OPSK 270500Z 00000KT 3000 HZ NSC 34/16 Q1011 NOSIG
TAF OPSK 270400Z 2706/2806 23006KT 5000 HZ FEW020 
     TEMPO 2801/2805 22005KT 2000 FU SCT020 SCT100
       
OPST 270600Z 31004KT 4000 HZ FEW100 30/10 Q1014 NOSIG RH30
TAF OPGD 270400Z 2706/2806 26010G20KT 5000 HZ SCT020 SCT100 
     TEMPO 2801/2805 22005KT 4000 SCT020 SCT100
       
OPKC 270555Z 28006KT 4000 HZ NSC 33/16 Q1014 NOSIG
TAF OPKC 270400Z 2706/2812 27010G20KT 7000 NSC FM 271800Z 27005G15KT 6000 NSC 
     TEMPO 2801/2805 27010KT 5000 HZ FEW020 FEW100 FM 280700Z 27010G20KT 7000 NSC
       
OPLA 270555Z 31004KT 4000 HZ NSC 32/12 Q1013 A29.90 NOSIG
TAF OPLA 270345Z 2706/2812 31008KT 5000 HZ NSC TX35/2710Z TN19/2801Z FM 27,1500 31003KT 4000 FU NSC 
     BECMG 2801/2804 2500 FU FM 28,0400 33006KT 5000 HZ NSC
       
OPMT 270055Z 00000KT 4000 FU NSC 23/16 Q1010 NOSIG
OPNH 270600Z 31503KT 7000M NSC 37/15 Q.1012 NOSIG
TAF OPNH 270400Z 2706/2812 24010KT 6000 NSC FM 272100Z 22006KT 5000 HZ SCT020 SCT100 
     TEMPO 2801/2805 22005KT 4000 HZ SCT020 SCT100 FM 280600Z 24008KT 6000 SCT020 SCT100
       
OPPS 270600Z 05006KT 8000 HZ FEW200 30/16 Q1015
TAF OPPS 270312Z 2706/2812 22010KT 4000 HZ FEW040 SCT100 
     TEMPO 2710/2712 FEW030TCU SCT040 BKN100 
     TEMPO 2715/2720 VCTS FEW030TCU SCT040 BKN100
       
OPRN 270600Z 27006KT 6000 FEW200 30/11 Q1015.5/29.99
TAF OPRN 270330Z 2706/2812 32010G20KT 6000 FEW040 SCT100 SCT200 
     BECMG 2715/2717 23010KT 4000 HZ SCT100 SCT200 
     BECMG 2800/2802 32010G20KT TSRA FEW030TCU/CB SCT040 BKN100
       
OPSK 270500Z 00000KT 3000 HZ NSC 34/16 Q1011 NOSIG
TAF OPSK 270400Z 2706/2806 23006KT 5000 HZ FEW020 
     TEMPO 2801/2805 22005KT 2000 FU SCT020 SCT100
       
OPST 270600Z 31004KT 4000 HZ FEW100 30/10 Q1014 NOSIG RH30
TAF OPGD 270400Z 2706/2806 26010G20KT 5000 HZ SCT020 SCT100 
     TEMPO 2801/2805 22005KT 4000 SCT020 SCT100
       
OPKC 270555Z 28006KT 4000 HZ NSC 33/16 Q1014 NOSIG
TAF OPKC 270400Z 2706/2812 27010G20KT 7000 NSC FM 271800Z 27005G15KT 6000 NSC 
     TEMPO 2801/2805 27010KT 5000 HZ FEW020 FEW100 FM 280700Z 27010G20KT 7000 NSC
       
OPMT 270055Z 00000KT 4000 FU NSC 23/16 Q1010 NOSIG
OPNH 270600Z 31503KT 7000M NSC 37/15 Q.1012 NOSIG
TAF OPNH 270400Z 2706/2812 24010KT 6000 NSC FM 272100Z 22006KT 5000 HZ SCT020 SCT100 
     TEMPO 2801/2805 22005KT 4000 HZ SCT020 SCT100 FM 280600Z 24008KT 6000 SCT020 SCT100
       
OPPS 270600Z 05006KT 8000 HZ FEW200 30/16 Q1015
TAF OPPS 270312Z 2706/2812 22010KT 4000 HZ FEW040 SCT100 
     TEMPO 2710/2712 FEW030TCU SCT040 BKN100 
     TEMPO 2715/2720 VCTS FEW030TCU SCT040 BKN100
       
OPSK 270500Z 00000KT 3000 HZ NSC 34/16 Q1011 NOSIG
TAF OPSK 270400Z 2706/2806 23006KT 5000 HZ FEW020 
     TEMPO 2801/2805 22005KT 2000 FU SCT020 SCT100